Weather History for KAQO - March, 2014

Change the Weather History Date:

Thursday, March 27, 2014

  Actual Average (KBMQ) Record (KBMQ)
Temperature  
Mean Temperature 74 °F -  
Max Temperature 87 °F 69 °F 84 °F (2014)
Min Temperature 62 °F 49 °F 41 °F (2001)
Cooling Degree Days 10    
Growing Degree Days 24 (Base 50)    
Moisture  
Dew Point 58 °F    
Average Humidity 63    
Maximum Humidity 88    
Minimum Humidity 24    
Precipitation  
Precipitation 0.00 in - - ()
Sea Level Pressure  
Sea Level Pressure 29.83 in    
Wind  
Wind Speed 9 mph (SSW)    
Max Wind Speed 17 mph    
Max Gust Speed 22 mph    
Visibility 10 miles    
Events      
Averages and records for this station are not official NWS values.
T = Trace of Precipitation, MM = Missing Value Source: NWS Daily Summary

Daily Weather History Graph

Daily Weather History Graph

Search for Another Location

Airport or City:

Trip Planner

Search our weather history database for the weather conditions in past years. The results will help you decide how hot, cold, wet, or windy it might be!

Date:

Astronomy

Mar. 27, 2014 Rise Set
Actual Time 7:29 AM CDT 7:50 PM CDT
Civil Twilight 7:05 AM CDT 8:14 PM CDT
Nautical Twilight 6:37 AM CDT 8:43 PM CDT
Astronomical Twilight 6:08 AM CDT 9:11 PM CDT
Moon 5:08 AM CDT 4:51 PM CDT
Length of Visible Light 13h 09m
Length of Day
12h 20m
Waning Crescent, 13% of the Moon is Illuminated
Mar 27
Waning Crescent
Mar 30
New
Apr 7
First Quarter
Apr 15
Full
Apr 22
Last Quarter

Hourly Weather History & Observations

Time (CDT) Temp. Heat Index Dew Point Humidity Pressure Visibility Wind Dir Wind Speed Gust Speed Precip Events Conditions
12:15 AM 62.6 °F - 57.2 °F 82% 29.94 in 10.0 mi South 11.5 mph 19.6 mph N/A   Overcast
12:35 AM 62.6 °F - 57.2 °F 82% 29.92 in 10.0 mi South 11.5 mph 20.7 mph N/A   Overcast
12:55 AM 62.6 °F - 57.2 °F 82% 29.92 in 10.0 mi South 11.5 mph 17.3 mph N/A   Overcast
1:15 AM 62.6 °F - 57.2 °F 82% 29.91 in 10.0 mi South 11.5 mph 17.3 mph N/A   Overcast
1:35 AM 62.6 °F - 57.2 °F 82% 29.90 in 10.0 mi South 8.1 mph 18.4 mph N/A   Overcast
1:55 AM 62.6 °F - 57.2 °F 82% 29.90 in 10.0 mi South 10.4 mph 17.3 mph N/A   Overcast
2:15 AM 62.6 °F - 57.2 °F 82% 29.89 in 10.0 mi South 10.4 mph - N/A   Overcast
2:35 AM 62.6 °F - 57.2 °F 82% 29.89 in 10.0 mi South 10.4 mph - N/A   Overcast
2:55 AM 62.6 °F - 57.2 °F 82% 29.88 in 10.0 mi South 9.2 mph - N/A   Overcast
3:15 AM 64.4 °F - 57.2 °F 77% 29.87 in 10.0 mi South 8.1 mph 16.1 mph N/A   Overcast
3:35 AM 64.4 °F - 57.2 °F 77% 29.87 in 10.0 mi South 8.1 mph - N/A   Overcast
3:55 AM 64.4 °F - 57.2 °F 77% 29.85 in 10.0 mi South 8.1 mph - N/A   Overcast
4:15 AM 64.4 °F - 59.0 °F 83% 29.85 in 10.0 mi South 12.7 mph 16.1 mph N/A   Overcast
4:35 AM 64.4 °F - 59.0 °F 83% 29.84 in 10.0 mi South 8.1 mph 20.7 mph N/A   Overcast
4:55 AM 64.4 °F - 59.0 °F 83% 29.84 in 10.0 mi South 11.5 mph 16.1 mph N/A   Overcast
5:15 AM 64.4 °F - 59.0 °F 83% 29.82 in 10.0 mi South 11.5 mph - N/A   Overcast
5:35 AM 64.4 °F - 59.0 °F 83% 29.82 in 10.0 mi South 6.9 mph - N/A   Overcast
5:55 AM 64.4 °F - 59.0 °F 83% 29.83 in 10.0 mi South 8.1 mph - N/A   Overcast
6:15 AM 64.4 °F - 60.8 °F 88% 29.83 in 10.0 mi South 5.8 mph - N/A   Overcast
6:35 AM 64.4 °F - 60.8 °F 88% 29.83 in 10.0 mi South 9.2 mph - N/A   Overcast
6:55 AM 64.4 °F - 60.8 °F 88% 29.83 in 10.0 mi South 5.8 mph - N/A   Overcast
7:15 AM 64.4 °F - 60.8 °F 88% 29.83 in 10.0 mi South 8.1 mph - N/A   Overcast
7:35 AM 66.2 °F - 60.8 °F 83% 29.84 in 10.0 mi SSW 12.7 mph 17.3 mph N/A   Overcast
7:55 AM 66.2 °F - 60.8 °F 83% 29.85 in 10.0 mi South 5.8 mph 16.1 mph N/A   Overcast
8:15 AM 66.2 °F - 60.8 °F 83% 29.85 in 10.0 mi South 9.2 mph - N/A   Overcast
8:35 AM 66.2 °F - 60.8 °F 83% 29.86 in 10.0 mi South 5.8 mph - N/A   Overcast
8:55 AM 66.2 °F - 62.6 °F 88% 29.86 in 10.0 mi South 5.8 mph - N/A   Overcast
9:15 AM 68.0 °F - 62.6 °F 83% 29.87 in 10.0 mi SSW 8.1 mph - N/A   Overcast
9:35 AM 69.8 °F - 62.6 °F 78% 29.87 in 10.0 mi SSW 13.8 mph 20.7 mph N/A   Overcast
9:55 AM 69.8 °F - 62.6 °F 78% 29.87 in 10.0 mi SSW 9.2 mph - N/A   Overcast
10:15 AM 71.6 °F - 62.6 °F 73% 29.87 in 10.0 mi SSW 11.5 mph - N/A   Overcast
10:35 AM 71.6 °F - 62.6 °F 73% 29.88 in 10.0 mi SW 8.1 mph - N/A   Overcast
10:55 AM 73.4 °F - 62.6 °F 69% 29.88 in 10.0 mi WSW 11.5 mph - N/A   Overcast
11:15 AM 75.2 °F - 62.6 °F 65% 29.88 in 10.0 mi WSW 11.5 mph - N/A   Overcast
11:35 AM 75.2 °F - 62.6 °F 65% 29.88 in 10.0 mi WSW 15.0 mph 20.7 mph N/A   Mostly Cloudy
11:55 AM 75.2 °F - 62.6 °F 65% 29.88 in 10.0 mi SW 16.1 mph 21.9 mph N/A   Scattered Clouds
12:15 PM 75.2 °F - 60.8 °F 61% 29.87 in 10.0 mi SW 17.3 mph - N/A   Partly Cloudy
12:35 PM 78.8 °F - 60.8 °F 54% 29.86 in 10.0 mi SW 11.5 mph 17.3 mph N/A   Partly Cloudy
12:55 PM 78.8 °F - 60.8 °F 54% 29.85 in 10.0 mi SW 11.5 mph 19.6 mph N/A   Partly Cloudy
1:10 PM 80.6 °F 81.5 °F 60.8 °F 51% 29.84 in 10.0 mi SW 13.8 mph 20.7 mph N/A   Partly Cloudy
1:30 PM 82.4 °F 82.5 °F 59.0 °F 45% 29.83 in 10.0 mi SSW 11.5 mph 17.3 mph N/A   Partly Cloudy
1:50 PM 82.4 °F 82.0 °F 57.2 °F 42% 29.82 in 10.0 mi WSW 8.1 mph 18.4 mph N/A   Partly Cloudy
2:10 PM 82.4 °F 82.0 °F 57.2 °F 42% 29.81 in 10.0 mi SW 8.1 mph - N/A   Clear
2:30 PM 82.4 °F 82.0 °F 57.2 °F 42% 29.80 in 10.0 mi SSW 5.8 mph - N/A   Clear
2:50 PM 84.2 °F 83.5 °F 57.2 °F 40% 29.79 in 10.0 mi SSW 10.4 mph 17.3 mph N/A   Clear
3:10 PM 84.2 °F 83.0 °F 55.4 °F 37% 29.78 in 10.0 mi SW 8.1 mph - N/A   Partly Cloudy
3:30 PM 86.0 °F 84.9 °F 57.2 °F 37% 29.78 in 10.0 mi WSW 6.9 mph - N/A   Partly Cloudy
3:50 PM 87.8 °F 86.1 °F 55.4 °F 33% 29.76 in 10.0 mi SW 12.7 mph - N/A   Clear
4:10 PM 87.8 °F 86.1 °F 55.4 °F 33% 29.76 in 10.0 mi South 4.6 mph - N/A   Clear
4:30 PM 87.8 °F - 51.8 °F 29% 29.75 in 10.0 mi SW 6.9 mph - N/A   Clear
4:50 PM 87.8 °F - 51.8 °F 29% 29.74 in 10.0 mi SSW 9.2 mph - N/A   Clear
5:10 PM 87.8 °F - 51.8 °F 29% 29.74 in 10.0 mi Calm Calm - N/A   Clear
5:30 PM 87.8 °F - 50.0 °F 27% 29.74 in 10.0 mi SW 4.6 mph - N/A   Partly Cloudy
5:50 PM 87.8 °F - 48.2 °F 25% 29.73 in 10.0 mi WSW 6.9 mph - N/A   Partly Cloudy
6:10 PM 87.8 °F - 48.2 °F 25% 29.74 in 10.0 mi West 5.8 mph - N/A   Clear
6:30 PM 87.8 °F - 48.2 °F 25% 29.74 in 10.0 mi SSW 5.8 mph - N/A   Clear
6:50 PM 87.8 °F - 46.4 °F 24% 29.74 in 10.0 mi SSW 6.9 mph - N/A   Clear
7:10 PM 84.2 °F - 46.4 °F 27% 29.74 in 10.0 mi Calm Calm - N/A   Clear
7:30 PM 84.2 °F 82.8 °F 53.6 °F 35% 29.75 in 10.0 mi South 5.8 mph - N/A   Clear
7:50 PM 82.4 °F 81.7 °F 55.4 °F 39% 29.75 in 10.0 mi South 11.5 mph 16.1 mph N/A   Clear
8:10 PM 80.6 °F 80.8 °F 57.2 °F 45% 29.76 in 10.0 mi South 9.2 mph - N/A   Clear
8:30 PM 78.8 °F - 57.2 °F 47% 29.77 in 10.0 mi South 10.4 mph - N/A   Clear
8:50 PM 77.0 °F - 57.2 °F 50% 29.77 in 10.0 mi South 6.9 mph - N/A   Clear
9:10 PM 75.2 °F - 57.2 °F 53% 29.78 in 10.0 mi South 4.6 mph - N/A   Clear
9:30 PM 75.2 °F - 57.2 °F 53% 29.79 in 10.0 mi Calm Calm - N/A   Clear
9:50 PM 71.6 °F - 57.2 °F 60% 29.80 in 10.0 mi SE 5.8 mph - N/A   Clear
10:10 PM 71.6 °F - 57.2 °F 60% 29.80 in 10.0 mi SE 4.6 mph - N/A   Clear
10:30 PM 69.8 °F - 59.0 °F 68% 29.81 in 10.0 mi East 8.1 mph - N/A   Clear
10:50 PM 69.8 °F - 59.0 °F 68% 29.82 in 10.0 mi Calm Calm - N/A   Clear
11:10 PM 69.8 °F - 60.8 °F 73% 29.82 in 10.0 mi East 5.8 mph - N/A   Clear
11:30 PM 68.0 °F - 60.8 °F 78% 29.82 in 10.0 mi Calm Calm - N/A   Clear
11:50 PM 66.2 °F - 60.8 °F 83% 29.82 in 10.0 mi Calm Calm - N/A   Clear